SCP
0 0 0 0 0 0 0 0 0 0 0 0 0 0 0 0 0 0 0 0 0 0 0 0 0 0 0 0 0 0 0 0 0 0 0 0 0 0
0 0 0 0 0 0 0 0 0 0 0 0 0 0 0 0 0 0 0 0 0 0 0 0 0 0 0 0 0 0 0 0 0 0 0 0 0 0
0 0 0 0 0 0 0 0 0 0 0 0 0 0 0 0 0 0 0 0 0 0 0 0 0 0 0 0 0 0 0 0 0 0 0 0 0 0
0 0 0 0 0 0 0 0 0 0 0 0 0 0 0 0 0 0 0 0 0 0 0 0 0 0 0 0 0 0 0 0 0 0 0 0 0 0
0 0 0 0 0 0 0 0 0 0 0 0 0 0 0 0 0 0 0 0 0 0 0 0 0 0 0 0 0 0 0 0 0 0 0 0 0 0
0 0 0 0 0 0 0 0 0 0 0 0 0 0 0 0 0 0 0 0 0 0 0 0 0 0 0 0 0 0 0 0 0 0 0 0 0 0
0 0 0 0 0 0 0 0 0 0 0 0 0 0 0 0 0 0 0 0 0 0 0 0 0 0 0 0 0 0 0 0 0 0 0 0 0 0
0 0 0 0 0 0 0 0 0 0 0 0 0 0 0 0 0 0 0 0 0 0 0 0 0 0 0 0 0 0 0 0 0 0 0 0 0 0
0 0 0 0 0 0 0 0 0 0 0 0 0 0 0 0 0 0 0 0 0 0 0 0 0 0 0 0 0 0 0 0 0 0 0 0 0 0
0 0 0 0 0 0 0 0 0 0 0 0 0 0 0 0 0 0 0 0 0 0 0 0 0 0 0 0 0 0 0 0 0 0 0 0 0 0
0 0 0 0 0 0 0 0 0 0 0 0 0 0 0 0 0 0 0 0 0 0 0 0 0 0 0 0 0 0 0 0 0 0 0 0 0 0
0 0 0 0 0 0 0 0 0 0 0 0 0 0 0 0 0 0 0 0 0 0 0 0 0 0 0 0 0 0 0 0 0 0 0 0 0 0
0 0 0 0 0 0 0 0 0 0 0 0 0 0 0 0 0 0 0 0 0 0 0 0 0 0 0 0 0 0 0 0 0 0 0 0 0 0
0 0 0 0 0 0 0 0 0 0 0 0 0 0 0 0 0 0 0 0 0 0 0 0 0 0 0 0 0 0 0 0 0 0 0 0 0 0
0 0 0 0 0 0 0 0 0 0 0 0 0 0 0 0 0 0 0 0 0 0 0 0 0 0 0 0 0 0 0 0 0 0 0 0 0 0
0 0 0 0 0 0 0 0 0 0 0 0 0 0 0 0 0 0 0 0 0 0 0 0 0 0 0 0 0 0 0 0 0 0 0 0 0 0
0 0 0 0 0 0 0 0 0 0 0 0 0 0 0 0 0 0 0 0 0 0 0 0 0 0 0 0 0 0 0 0 0 0 0 0 0 0
0 0 0 0 0 0 0 0 0 0 0 0 0 0 0 0 0 0 0 0 0 0 0 0 0 0 0 0 0 0 0 0 0 0 0 0 0 0
0 0 0 0 0 0 0 0 0 0 0 0 0 0 0 0 0 0 0 0 0 0 0 0 0 0 0 0 0 0 0 0 0 0 0 0 0 0
0 0 0 0 0 0 0 0 0 0 0 0 0 0 0 0 0 0 0 0 0 0 0 0 0 0 0 0 0 0 0 0 0 0 0 0 0 0
0 0 0 0 0 0 0 0 0 0 0 0 0 0 0 0 0 0 0 0 0 0 0 0 0 0 0 0 0 0 0 0 0 0 0 0 0 0
0 0 0 0 0 0 0 0 0 0 0 0 0 0 0 0 0 0 0 0 0 0 0 0 0 0 0 0 0 0 0 0 0 0 0 0 0 0
0 0 0 0 0 0 0 0 0 0 0 0 0 0 0 0 0 0 0 0 0 0 0 0 0 0 0 0 0 0 0 0 0 0 0 0 0 0
Wind_Speed
3 3 2 3 2 2 1 1 1 0 2 2 1 2 2 3 4 3 4 8 8 8 8 7 8 8 9 9 9 9 9 9 9 8 7 7 7 7
2 3 2 2 2 2 1 1 2 1 1 2 1 2 2 2 3 3 3 3 5 7 7 7 8 8 8 9 9 9 9 10 10 9 9 7 6 6
3 3 3 2 2 1 1 1 1 1 0 1 1 1 1 2 2 2 2 2 3 6 6 7 7 7 7 8 8 8 9 9 9 9 9 9 8 7
2 2 2 2 1 1 1 1 1 2 1 1 0 1 1 2 3 3 3 2 2 5 5 5 6 6 7 7 7 7 7 8 8 9 9 9 9 9
1 1 1 1 1 1 0 0 1 1 2 1 1 1 1 2 2 2 2 2 2 1 1 2 4 5 5 5 6 6 7 7 8 8 9 9 9 10
1 1 1 1 1 0 0 0 1 1 1 2 2 1 2 2 3 3 2 2 2 3 2 2 1 1 2 3 4 5 6 6 6 7 8 8 9 10
3 2 1 1 2 2 2 2 1 1 1 2 2 2 2 2 3 3 3 3 2 2 3 3 3 2 2 1 2 4 5 6 7 7 8 8 9 10
3 3 3 3 3 3 1 2 4 3 3 3 3 3 3 3 3 4 4 4 4 2 4 4 3 4 3 3 3 4 6 7 7 7 8 9 9 10
3 3 2 2 3 4 4 6 4 4 5 5 4 4 4 4 5 5 5 5 5 4 5 5 4 5 4 2 1 4 6 7 7 8 9 9 10 11
4 4 4 3 3 3 3 4 3 3 4 5 5 5 5 5 5 6 6 7 6 3 4 6 5 5 5 4 3 4 6 7 8 9 10 10 11 12
4 4 4 4 1 3 4 4 4 4 3 4 4 5 4 5 6 5 5 6 6 4 3 5 6 7 6 6 4 5 7 8 9 10 11 11 12 13
4 4 3 4 2 4 5 5 6 5 5 4 6 7 7 6 7 7 6 6 6 5 3 5 6 6 6 5 5 5 6 8 10 11 11 11 11 10
4 4 3 4 5 6 7 6 6 6 6 6 5 5 5 5 5 6 6 6 7 6 4 5 6 6 7 7 7 6 7 7 7 8 9 10 10 10
4 4 2 4 6 7 7 6 6 7 6 5 5 5 5 5 5 5 6 7 7 9 8 7 7 7 8 10 9 7 7 8 8 8 8 8 9 12
4 2 2 4 6 6 7 8 7 6 6 6 6 6 5 6 5 5 7 7 9 9 8 9 9 8 9 10 10 9 9 8 8 8 9 8 9 8
5 4 5 6 7 6 6 6 6 5 6 6 6 6 5 5 5 5 6 6 7 7 8 9 9 10 9 10 10 11 10 9 8 8 9 9 9 9
4 4 5 5 5 5 5 5 5 6 6 6 6 6 6 6 6 6 6 7 7 8 7 6 8 8 11 10 10 10 10 10 9 9 9 10 10 10
5 5 6 6 6 6 6 6 6 6 6 6 6 7 7 7 7 6 6 7 8 8 8 7 7 7 9 9 10 11 10 10 10 10 10 11 12 10
6 6 6 6 6 6 6 6 6 6 6 6 7 7 7 7 7 7 7 7 8 8 8 8 7 8 10 11 9 8 10 11 10 10 10 10 12 11
6 6 6 6 6 6 6 6 6 6 6 7 7 7 7 7 8 8 8 9 9 9 9 8 8 8 10 12 12 10 10 11 10 11 11 11 11 12
5 6 6 6 6 6 6 7 7 7 7 7 7 8 7 8 8 8 9 10 10 10 10 10 9 10 10 10 11 11 10 10 12 11 12 12 12 12
5 5 5 6 6 6 6 6 7 7 8 8 7 7 8 8 9 10 9 9 9 10 11 10 10 9 9 10 12 13 13 12 10 14 15 15 11 12
5 5 5 6 6 6 6 7 9 8 7 7 8 8 8 8 9 9 9 10 10 11 11 10 9 9 9 10 12 12 16 14 11 10 10 12 16 19
Wind_Direction
89 91 80 82 59 45 32 338 318 124 97 81 64 43 18 27 359 3 34 35 24 25 28 31 31 29 26 24 21 20 19 18 19 20 16 13 9 1
84 87 82 84 75 66 43 29 354 335 39 62 42 36 24 19 14 360 33 42 31 27 25 24 24 24 22 21 20 20 19 18 16 14 13 6 359 351
116 108 99 74 75 70 54 45 29 6 73 70 59 37 29 1 10 354 359 356 47 39 23 19 19 19 17 15 16 16 16 15 13 9 6 2 353 341
116 121 113 109 83 40 17 42 32 348 318 306 67 359 347 350 343 338 344 359 18 55 30 20 18 18 16 12 11 9 9 9 6 2 358 355 349 340
164 164 145 141 144 108 321 23 17 345 314 292 322 347 326 336 324 320 330 337 340 63 73 42 27 14 12 9 7 5 4 3 1 358 354 350 345 338
200 213 232 248 286 267 242 303 296 283 290 290 299 311 316 319 308 312 313 321 325 331 337 318 309 303 345 359 359 357 353 352 351 349 347 344 341 337
202 210 205 25 12 342 327 315 289 272 266 274 279 287 293 303 312 310 309 308 308 320 307 304 296 296 288 273 335 351 344 338 336 336 336 334 332 329
218 215 188 195 184 198 254 314 317 294 290 279 279 286 298 301 304 299 306 307 308 323 301 300 298 298 303 319 6 343 329 326 325 325 325 324 321 319
234 223 217 204 218 215 201 214 227 250 272 282 283 291 296 305 298 294 296 298 302 319 307 295 293 293 292 303 323 311 311 312 313 315 315 314 313 312
236 237 231 227 230 248 240 244 248 237 243 253 271 285 296 299 289 291 295 289 283 281 292 291 295 292 292 282 226 271 286 290 294 298 302 305 306 303
231 239 244 238 198 246 248 250 252 247 232 246 277 282 290 290 288 279 280 281 286 284 277 286 297 297 288 278 252 233 253 265 275 282 289 293 296 294
225 223 223 239 216 239 247 253 257 261 261 246 241 241 250 244 242 257 271 277 286 288 286 284 292 300 291 276 283 275 266 257 255 259 268 276 282 286
233 230 218 198 220 237 255 260 270 280 270 267 266 263 260 259 252 253 258 263 272 275 290 287 287 286 284 290 289 287 287 289 282 274 259 256 258 267
247 245 227 200 226 239 246 258 268 270 267 265 264 264 264 265 264 265 265 262 263 273 280 277 277 282 284 285 289 289 286 287 288 288 289 275 255 249
253 258 246 225 232 236 235 246 250 253 258 262 266 270 273 276 276 271 267 264 265 264 267 268 269 274 275 280 286 289 290 287 283 286 288 287 286 282
241 232 228 236 240 251 247 238 244 253 260 264 270 273 276 274 271 271 271 271 268 267 264 266 267 269 270 274 279 283 284 285 285 285 286 285 284 281
243 242 244 241 243 246 250 252 250 248 251 258 266 270 270 270 269 267 268 270 269 275 278 271 268 268 267 271 274 276 280 282 283 287 287 284 280 279
244 246 248 251 254 257 258 258 254 255 259 262 265 268 270 271 272 270 265 265 269 273 277 281 280 277 273 264 252 272 278 282 285 284 282 283 283 282
241 251 254 256 259 261 261 262 263 264 266 265 265 266 267 269 270 271 269 268 270 273 278 280 278 276 279 282 274 243 273 283 284 282 279 280 284 288
248 257 261 262 262 263 263 263 264 264 262 263 265 267 268 269 269 270 269 271 275 277 278 277 273 273 274 283 288 282 255 269 278 281 282 282 281 283
253 260 265 266 266 267 267 266 265 266 266 265 265 266 268 269 270 270 272 272 271 274 275 275 277 273 275 278 277 278 277 257 263 275 284 285 287 287
265 267 269 272 272 269 269 268 267 266 267 266 268 268 268 269 270 271 272 273 272 273 276 278 281 277 272 271 277 284 287 286 268 257 259 264 276 282
271 274 275 275 276 277 274 272 273 273 272 273 272 271 270 269 269 269 270 270 273 275 278 279 278 274 272 272 277 281 286 290 289 284 275 263 257 261